Flag for Turkey Weather past 2 weeks in Samsun, Turkey

Now
84 °F

Broken clouds.


Feels Like: 90 °F
Forecast: 66 / 76 °F
Wind: 10 mph from Northwest

Location: Samsun / Carsamba

Current Time: Aug 28, 2014 at 1:11:06 PM

Latest Report: Aug 28, 2014 at 12:50 PM


Visibility: N/A

Pressure: 29.80 "Hg

Humidity: 66%

Dew point: 72 °F

Location of SamsunLocation

Historic Weather in Samsun — Graph

°F

Samsun temperature yesterday

Maximum temperature yesterday: 86 °F (at 12:50 PM)
Minimum temperature yesterday: 66 °F (at 2:50 AM)
Average temperature yesterday: 76 °F

Past Weeks' High & Low Weather Summary

 TemperatureHumidityPressure
High88 °F (Aug 15, 1:50 PM)100% (Aug 14, 6:50 AM)30.04 "Hg (Aug 14, 6:50 AM)
Low66 °F (Aug 16, 3:50 AM)48% (Aug 26, 3:50 PM)29.53 "Hg (Aug 18, 3:50 AM)
Average77 °F79%29.87 "Hg
* Reported Aug 13 11:50 AM — Aug 28 11:50 AM, Samsun, Weather by CustomWeather, © 2014

Note: Actual official high and low records may vary slightly from our data, if they occured in-between our weather recording intervals... More about our weather records

Advertising

Samsun weather history for previous 24 hours

 ConditionsComfort  
Time TempWeatherWind HumidityBarometerVisibility
11:50 AM
Aug 28
82 °FBroken clouds.10 mph74%29.80 "HgN/A
10:50 AM82 °FBroken clouds.12 mph79%29.80 "HgN/A
9:50 AM81 °FBroken clouds.10 mph79%29.77 "HgN/A
8:50 AM81 °FBroken clouds.8 mph79%29.77 "HgN/A
7:50 AM79 °FBroken clouds.6 mph89%29.77 "HgN/A
6:50 AM77 °FPartly cloudy.1 mph89%29.77 "HgN/A
5:50 AM77 °FPartly cloudy.No wind89%29.77 "HgN/A
4:50 AM75 °FPartly cloudy.2 mph94%29.74 "HgN/A
3:50 AM75 °FPartly cloudy.No wind94%29.74 "HgN/A
2:50 AM75 °FPartly cloudy.No wind94%29.74 "HgN/A
1:50 AM75 °FPartly cloudy.3 mph94%29.77 "HgN/A
12:50 AM77 °FPartly cloudy.No wind89%29.77 "HgN/A
11:50 PM
Aug 27
77 °FPartly cloudy.No wind89%29.77 "HgN/A
10:50 PM77 °FPartly cloudy.1 mph89%29.77 "HgN/A
9:50 PM77 °FPartly cloudy.2 mph89%29.77 "HgN/A
8:50 PM77 °FPartly cloudy.No wind89%29.80 "HgN/A
7:50 PM77 °FBroken clouds.2 mph83%29.77 "HgN/A
6:50 PM79 °FScattered clouds.5 mph79%29.77 "HgN/A
5:50 PM81 °FPartly sunny.5 mph74%29.77 "HgN/A
4:50 PM82 °FPartly sunny.7 mph70%29.77 "HgN/A
3:50 PM84 °FScattered clouds.7 mph66%29.80 "HgN/A
2:50 PM84 °FScattered clouds.8 mph66%29.80 "HgN/A
1:50 PM84 °FScattered clouds.8 mph66%29.80 "HgN/A
Weather by CustomWeather, © 2014

See weather overviewHow to use our weather pages